Home   Weather   Lethbridge   Past weeks

Flag for Canada Past Weather in Lethbridge, Alberta, Canada — Yesterday and Last 2 Weeks

Now
32 °F

Light snow. Ice fog.


Feels Like: 27 °F
Forecast: 31 / 47 °F
Wind: 5 mph from Southeast

Location: Lethbridge

Current Time: Apr 26, 2017 at 10:13:01 am

Latest Report: Apr 26, 2017 at 9:00 am


Visibility: 5 mi

Pressure: 29.82 "Hg (26.74 "Hg at 872m altitude)

Humidity: 100%

Dew Point: 32 °F

Location of LethbridgeLocation

Past Weather in Lethbridge — Graph

°F

Lethbridge Temperature Yesterday

Maximum temperature yesterday: 41 °F (at 12:00 am)
Minimum temperature yesterday: 34 °F (at 11:09 pm)
Average temperature yesterday: 37 °F

High & Low Weather Summary for the Past Weeks

 TemperatureHumidityPressure
High64 °F (Apr 20, 3:08 pm)100% (Apr 13, 2:00 am)30.39 "Hg (Apr 13, 2:00 am)
Low28 °F (Apr 16, 10:00 am)20% (Apr 19, 4:00 pm)29.65 "Hg (Apr 23, 5:00 pm)
Average42 °F72%29.96 "Hg
* Reported Apr 11 9:00 am — Apr 26 9:00 am, Lethbridge, Weather by CustomWeather, © 2017

Note: Actual official high and low records may vary slightly from our data, if they occured in-between our weather recording intervals... More about our weather records

Advertising

Lethbridge Weather History for the Previous 24 Hours

Scroll right to see more
 ConditionsComfort  
Time TempWeatherWind HumidityBarometerVisibility
9:00 am
Wed, Apr 26
32 °FLight snow. Ice fog.5 mph100%29.82 "Hg5 mi
8:35 am32 °FLight snow. Ice fog.3 mph100%29.82 "Hg4 mi
8:17 am32 °FLight snow. Ice fog.6 mph100%29.83 "Hg3 mi
7:31 am30 °FLight snow. Ice fog.5 mph100%29.83 "Hg1 mi
7:00 am30 °FSnow. Ice fog.3 mph100%29.84 "Hg1 mi
6:00 am30 °FLight snow. Ice fog.5 mph100%29.85 "Hg1 mi
5:27 am30 °FLight snow. Overcast.3 mph100%29.85 "Hg1 mi
5:00 am30 °FLight snow. Mostly cloudy.2 mph100%29.86 "Hg3 mi
4:44 am30 °FLight snow. Mostly cloudy.5 mph100%29.86 "Hg5 mi
4:36 am32 °FLight snow. Mostly cloudy.3 mph93%29.87 "Hg4 mi
4:14 am32 °FLight snow. Mostly cloudy.5 mph93%29.87 "Hg1 mi
4:00 am32 °FLight snow. Low clouds.5 mph93%29.87 "Hg1 mi
3:27 am32 °FLight snow. Mostly cloudy.2 mph100%29.88 "Hg2 mi
3:23 am32 °FLight snow. Mostly cloudy.6 mph100%29.88 "Hg2 mi
3:08 am32 °FLight rain. Overcast.6 mph100%29.89 "Hg7 mi
2:32 am32 °FLight snow. Low clouds.7 mph100%29.90 "Hg3 mi
2:09 am32 °FLight snow. Mostly cloudy.7 mph100%29.90 "Hg1 mi
1:40 am32 °FLight snow. Mostly cloudy.3 mph100%29.92 "Hg1 mi
1:24 am32 °FLight snow. Overcast.3 mph100%29.92 "Hg1 mi
1:05 am32 °FLight snow. Overcast.7 mph100%29.93 "Hg2 mi
12:38 am32 °FLight snow. Overcast.6 mph100%29.93 "Hg2 mi
12:22 am34 °FLight rain. Fog.10 mph93%29.93 "Hg5 mi
12:00 am34 °FMostly cloudy.7 mph93%29.94 "Hg9 mi
11:24 pm
Tue, Apr 25
34 °FPartly cloudy.9 mph93%29.95 "Hg9 mi
11:09 pm34 °FLight rain. Mostly cloudy.9 mph93%29.95 "Hg9 mi
10:23 pm36 °FOvercast.5 mph87%29.95 "Hg15 mi
10:00 pm36 °FLight rain. Overcast.6 mph87%29.95 "Hg15 mi
9:49 pm36 °FSleet. Overcast.7 mph87%29.96 "Hg15 mi
9:25 pm37 °FLight rain. Mostly cloudy.7 mph75%29.95 "Hg15 mi
9:00 pm37 °FMostly cloudy.7 mph75%29.95 "Hg15 mi
8:00 pm37 °FPartly sunny.5 mph75%29.95 "Hg25 mi
7:00 pm39 °FPartly sunny.6 mph70%29.94 "Hg25 mi
6:00 pm37 °FOvercast.9 mph81%29.94 "Hg25 mi
5:00 pm37 °FOvercast.9 mph81%29.94 "Hg25 mi
4:00 pm37 °FOvercast.13 mph87%29.94 "Hg25 mi
3:00 pm37 °FOvercast.13 mph87%29.93 "Hg25 mi
2:00 pm37 °FMostly cloudy.7 mph93%29.93 "Hg15 mi
1:53 pm37 °FMostly cloudy.8 mph93%29.92 "Hg15 mi
1:26 pm37 °FLight rain. Mostly cloudy.9 mph93%29.92 "Hg10 mi
1:00 pm37 °FLight rain. Fog.10 mph93%29.91 "Hg6 mi
12:00 pm36 °FLight rain. Fog.13 mph100%29.90 "Hg4 mi
11:45 am36 °FLight rain. Fog.13 mph100%29.90 "Hg4 mi
11:00 am37 °FLight rain. Low clouds.7 mph93%29.89 "Hg10 mi
10:00 am37 °FLight rain. Fog.2 mph93%29.88 "Hg5 mi
Weather by CustomWeather, © 2017

See weather overviewHow to use our weather pages